This demonstration page uses our WeatherBlox Daily Observations layout. Learn more.

Left ArrowRight Arrow

47.50024, -111.30081

Hourly Observations for April 28, 2019

Temp ( °F °C ) Dew Point ( °F °C ) Humidity (%) Winds ( mph kmh ) Pressure ( in mb ) Visibility ( mi km ) Precip ( " mm )
12:43 am 00:43 Cloudy 33 0.6 29 -1.7 85 85 NW 21 33 29.86 1011 10 16 0.00 0.00
12:53 am 00:53 Cloudy 33 0.6 29 -1.7 85 85 NW 20 31 29.81 1010 10 16 0.00 0.00
1:18 am 01:18 Windy with Snow Likely 32 0 31 -0.6 96 96 NW 21 33 29.88 1012 7 11 0.00 0.03
1:33 am 01:33 Windy with Snow Likely 31 -0.6 29 -1.7 92 92 WNW 28 44 29.89 1012 3 5 0.00 0.03
1:44 am 01:44 Windy with Snow Likely 31 -0.6 28 -2.2 89 89 WNW 25 41 29.90 1013 6 10 0.00 0.03
1:53 am 01:53 Cloudy 31 -0.6 26 -3.3 82 82 NW 30 48 29.82 1010 9 14 0.00 0.03
2:02 am 02:02 Cloudy 32 0 25 -3.9 75 75 NW 32 52 29.88 1012 10 16 0.00 0.00
2:53 am 02:53 Cloudy 30 -1.1 24 -4.4 79 79 WNW 38 61 29.81 1010 10 16 0.00 0.00
3:18 am 03:18 Cloudy with Light Wintry Mix 30 -1.1 25 -3.9 82 82 WNW 36 57 29.88 1012 9 14 0.00 0.03
3:36 am 03:36 Very Windy with Snow Likely 29 -1.7 26 -3.3 89 89 WNW 39 63 29.89 1012 3 4 0.00 0.03
3:40 am 03:40 Windy with Snow Likely 29 -1.7 27 -2.8 92 92 WNW 37 59 29.90 1012 2 2 0.00 0.03
3:53 am 03:53 Windy with Snow Likely 29 -1.7 27 -2.8 92 92 WNW 36 57 29.82 1010 3 4 0.00 0.03
4:00 am 04:00 Windy with Snow Likely 29 -1.7 27 -2.8 92 92 WNW 29 46 29.90 1012 7 11 0.00 0.03
4:36 am 04:36 Windy with Snow Likely 28 -2.2 26 -3.3 92 92 NW 29 46 29.92 1013 7 11 0.00 0.03
4:51 am 04:51 Windy with Snow Likely 28 -2 27 -3 93 93 NW 32 52 29.93 1014 3 4 0.00 0.03
4:53 am 04:53 Windy with Snow Likely 28 -2.2 26 -3.3 92 92 NW 32 52 29.85 1011 2 3 0.00 0.03
5:46 am 05:46 Windy with Snow Likely 27 -2.8 25 -3.9 92 92 NW 37 59 29.96 1015 2 3 0.00 0.03
5:53 am 05:53 Windy with Snow Likely 27 -2.8 25 -3.9 92 92 NW 37 59 29.88 1012 2 3 0.00 0.03
6:12 am 06:12 Windy with Snow Likely 26 -3.3 25 -3.9 96 96 NW 37 59 29.99 1016 2 2 0.00 0.03
6:21 am 06:21 Windy with Snow Likely 26 -3.3 25 -3.9 96 96 NW 35 56 30.00 1016 1 2 0.00 0.03
6:26 am 06:26 Windy with Snow Likely 26 -3.3 25 -3.9 96 96 NW 37 59 30.00 1016 1 1 0.00 0.03
6:33 am 06:33 Cloudy with Snow 26 -3.3 25 -3.9 96 96 NW 37 59 30.00 1016 1 1 0.00 0.03
6:53 am 06:53 Mostly Cloudy with Snow 25 -3.9 25 -3.9 100 100 NW 33 54 29.95 1014 1 1 0.00 0.03
7:12 am 07:12 Mostly Cloudy with Snow 25 -3.9 25 -3.9 100 100 NW 30 48 30.06 1018 0 0 0.00 0.03
7:53 am 07:53 Cloudy with Snow 25 -3.9 24 -4.4 96 96 NW 35 56 30.01 1016 0 0 0.02 0.51
8:53 am 08:53 Mostly Cloudy with Heavy Snow 25 -3.9 24 -4.4 96 96 NW 33 54 30.06 1018 0 0 0.03 0.76
9:53 am 09:53 Mostly Cloudy with Snow 24 -4.4 24 -4.4 100 100 NNW 32 52 30.12 1020 0 0 0.02 0.51
10:53 am 10:53 Cloudy with Heavy Snow 24 -4.4 23 -5 96 96 NW 28 44 30.16 1022 0 0 0.02 0.51
11:26 am 11:26 Cloudy with Snow 24 -4.4 23 -5 96 96 NW 26 43 30.25 1024 0 0 0.01 0.25
11:38 am 11:38 Cloudy with Heavy Snow 24 -4.4 23 -5 96 96 NNW 30 48 30.26 1025 0 0 0.01 0.25
11:53 am 11:53 Cloudy with Snow 25 -3.9 22 -5.6 88 88 NW 35 56 30.22 1023 0 0 0.01 0.25
12:48 pm 12:48 Mostly Cloudy with Light Snow 27 -3 21 -6 80 80 NNW 35 56 30.28 1025 1 1 0.01 0.25
12:53 pm 12:53 Mostly Cloudy with Light Snow 26 -3.3 22 -5.6 84 84 NNW 30 48 30.25 1025 1 1 0.01 0.25
1:53 pm 13:53 Cloudy with Snow 26 -3.3 20 -6.7 78 78 NNW 37 59 30.30 1026 1 1 0.00 0.03
2:08 pm 14:08 Windy with Snow Likely 26 -3.3 19 -7.2 75 75 NNW 31 50 30.33 1027 1 2 0.00 0.03
2:32 pm 14:32 Windy with Snow Likely 26 -3.3 19 -7.2 75 75 NNW 32 52 30.35 1028 2 2 0.00 0.03
2:50 pm 14:50 Windy with Snow Likely 27 -3 18 -8 69 69 NW 28 44 30.36 1028 2 3 0.00 0.03
2:53 pm 14:53 Windy with Snow Likely 28 -2.2 18 -7.8 66 66 NNW 28 44 30.34 1027 2 3 0.00 0.03
2:56 pm 14:56 Cloudy with Light Wintry Mix 28 -2.2 18 -7.8 66 66 NW 25 41 30.35 1028 3 5 0.00 0.03
2:57 pm 14:57 Cloudy with Light Wintry Mix 28 -2.2 17 -8.3 63 63 NNW 25 41 30.35 1028 7 11 0.00 0.03
2:59 pm 14:59 Cloudy with Light Wintry Mix 28 -2.2 17 -8.3 63 63 NNW 25 41 30.36 1028 7 11 0.00 0.03
3:53 pm 15:53 Cloudy 30 -1.1 15 -9.4 54 54 NW 23 37 30.37 1028 10 16 0.00 0.03
4:53 pm 16:53 Cloudy 30 -1.1 14 -10 51 51 NNW 18 30 30.39 1029 10 16 0.00 0.03
5:53 pm 17:53 Cloudy 30 -1.1 14 -10 51 51 N 21 33 30.41 1030 10 16 0.00 0.00
6:53 pm 18:53 Cloudy 29 -1.7 15 -9.4 56 56 NNW 16 26 30.45 1031 10 16 0.00 0.00
7:53 pm 19:53 Cloudy 27 -2.8 16 -8.9 63 63 N 8 13 30.48 1032 10 16 0.00 0.00
8:53 pm 20:53 Cloudy 25 -3.9 17 -8.3 72 72 N 7 11 30.50 1033 10 16 0.00 0.00
9:53 pm 21:53 Partly Cloudy 25 -3.9 16 -8.9 69 69 Calm 30.51 1033 10 16 0.00 0.00
10:53 pm 22:53 Cloudy 24 -4.4 15 -9.4 68 68 Calm 30.51 1033 10 16 0.00 0.00
11:53 pm 23:53 Mostly Cloudy 20 -6.7 17 -8.3 89 89 SW 5 7 30.51 1033 10 16 0.00 0.00

Powered by AerisWeather